[[{"header":{"parameterUnit":"m.s-1","parameterCategory":1,"la1":30.2991,"la2":30.254,"lo1":-89.0895,"lo2":-89.0444,"dy":0.0017,"dx":0.0017,"nx":28,"ny":28,"refTime":"2023-08-11T21:00:00:Z","depth":0,"parameterNumber":2,"parameterNumberName":"U-component_of_WINDS"},"data":[0,0,0,0,0,0,0,0,0,0,0,0,0,0,0,0,0,0,0,0,0,0,0,0,0,0,0,0,0,0,0,0,0,0,0,0,0,0,0,0,0,0,0,0,0,0,0,0,0,0,0,0,0,0,0,0,0,0,5.8818,5.8819,0,5.8912,5.8913,5.8914,5.8807,5.8803,5.8799,5.8796,5.8893,5.8899,5.8906,0,0,0,0,0,0,0,0,0,0,0,0,0,5.8545,5.8551,5.8818,5.8819,5.882,5.8912,5.8913,5.8915,5.8808,5.8803,5.8798,5.8794,5.8891,5.8899,5.8906,0,0,0,0,0,0,0,0,0,0,0,0,0,5.8654,5.8553,5.8818,5.8778,5.8776,5.8912,5.8913,5.8915,5.8809,5.8803,5.8797,5.8791,5.8889,5.8898,5.8907,5.9087,0,0,5.8937,5.8941,0,0,0,0,0,0,0,0,5.8648,5.8664,5.8783,5.8781,5.8779,5.8842,5.8853,5.8973,5.8811,5.8797,5.8795,5.8788,5.8881,5.8891,5.8922,5.9092,5.9096,5.8937,5.8943,5.8947,5.895,0,0,0,0,0,0,0,5.8641,5.866,5.8855,5.8785,5.8782,5.8756,5.8764,5.8875,5.8872,5.8797,5.879,5.8802,5.8879,5.8913,5.8923,5.9098,5.8937,5.8946,5.8952,5.8955,5.9416,5.9423,0,0,0,0,0,0,5.8638,5.8654,5.8852,5.8858,5.8697,5.8765,5.8775,5.8828,5.887,5.8871,5.8807,5.8797,5.89,5.8912,5.8926,5.9137,5.8947,5.8956,5.8962,5.941,5.9418,5.9425,0,0,0,0,0,0,5.8632,5.8656,5.8848,5.8754,5.8776,5.8777,5.8836,5.8833,5.8867,5.8878,5.8877,5.8843,5.8895,5.8913,5.9047,5.9139,5.896,5.8969,5.9402,5.9412,5.9421,5.9561,0,0,0,0,0,0,5.8625,5.8655,5.8724,5.8756,5.8782,5.8968,5.8842,5.8839,5.8883,5.8871,5.8911,5.8912,5.8892,5.9034,5.9057,5.9149,5.8977,5.9394,5.9407,5.9418,5.9548,5.9574,5.9597,0,0,0,0,0,5.8616,5.876,5.8728,5.8752,5.8868,5.8974,5.8988,5.8962,5.8891,5.8959,5.8966,5.891,5.9126,5.9048,5.9073,5.917,5.9388,5.9403,5.9417,5.9537,5.9569,5.9596,0,0,0,0,0,0,5.8739,5.8764,5.8728,5.8888,5.8929,5.8955,5.9041,5.8998,5.9061,5.9046,5.9012,5.9022,5.9164,5.918,5.9094,5.9344,5.9245,5.9265,5.9328,5.9358,5.9382,5.9373,5.8985,0,0,0,0,0,5.8785,5.8869,5.8886,5.9026,5.9048,5.9042,5.9087,5.9063,5.9105,5.9122,5.9139,5.9181,5.9258,5.9309,5.9381,5.9551,5.9556,5.9629,5.9654,5.9674,5.9691,5.9778,5.981,5.9473,5.9473,5.9473,0,0,5.8881,5.8904,5.896,5.9051,5.908,5.9167,5.9057,5.9154,5.9218,5.9137,5.9263,5.9277,5.9323,5.9475,5.9542,5.9493,5.9785,5.9692,5.9708,5.9714,5.9797,5.9828,5.9857,5.9483,5.9481,5.948,0,0,5.9098,5.9126,5.9243,5.9275,5.932,5.9314,5.9343,5.9376,5.9381,5.9508,5.9447,5.9523,5.9657,5.9691,5.9726,5.9955,5.9904,5.9979,6.0105,6.0191,6.0217,6.024,6.0319,6.0348,5.9997,5.9997,5.9998,0,5.9211,5.9339,5.9309,5.941,5.9451,5.9381,5.9498,5.953,5.9598,5.9627,5.9571,5.9735,5.9762,5.9918,5.9974,6.0006,6.0035,5.9973,6.0216,6.0239,6.026,6.0334,6.0364,6.0006,6.0005,6.0004,6.0003,0,5.9474,5.9564,5.9653,5.9718,5.9769,5.9879,5.9864,5.992,5.9892,5.9892,6.002,6.0049,6.0123,6.016,6.0134,6.0313,6.028,6.0221,6.012,6.0301,6.037,6.0399,6.0018,6.0015,6.0012,6.001,0,0,5.9771,5.9817,5.985,5.9877,5.9921,5.999,6.0096,6.0168,6.0214,6.0263,6.0349,6.0463,6.0408,6.0448,6.0425,6.0501,6.0676,6.0432,6.0432,6.0473,6.0871,6.0912,6.0946,6.0644,6.065,6.0654,6.0865,0,5.9986,6.0167,6.0143,6.0316,6.0397,6.0332,6.0423,6.046,6.0463,6.0532,6.0536,6.0615,6.0538,6.0561,6.0634,6.064,6.0755,6.0625,6.0722,6.0725,6.0709,6.0982,6.1027,6.1225,6.0893,6.0897,6.0901,0,6.0261,6.0318,6.0499,6.0529,6.0562,6.0644,6.0707,6.0775,6.0814,6.0811,6.0855,6.0818,6.0922,6.0822,6.0963,6.0875,6.0913,6.0922,6.0929,6.0935,6.0822,6.0992,6.1288,6.1317,6.0944,6.094,6.0937,0,6.0455,6.0577,6.07,6.0726,6.0765,6.0824,6.0843,6.0877,6.0921,6.0976,6.1003,6.1071,6.1107,6.116,6.1142,6.1071,6.1286,6.1185,6.1285,6.1285,6.133,6.1327,6.1634,6.1362,6.1361,6.1361,6.136,0,6.0695,6.0808,6.0787,6.0863,6.0987,6.0958,6.1081,6.1092,6.1123,6.1198,6.1147,6.1219,6.1193,6.1264,6.1251,6.1368,6.1386,6.1385,6.1379,6.1387,6.1387,6.1409,6.1394,6.1369,6.1367,6.1365,6.1364,0,6.0932,6.0923,6.1052,6.1078,6.1086,6.1176,6.1197,6.1268,6.1267,6.1363,6.1384,6.1382,6.1462,6.145,6.154,6.1531,6.1676,6.1656,6.1662,6.1656,6.1755,6.1744,6.2084,6.2126,6.183,6.1833,6.1835,0,6.1084,6.1169,6.1203,6.1249,6.1272,6.1349,6.1393,6.1368,6.1415,6.1466,6.153,6.1606,6.1664,6.1795,6.1801,6.1869,6.1848,6.1962,6.1857,6.1862,6.1845,6.1838,6.1845,6.1982,6.1985,6.1988,6.199,0,6.1355,6.1345,6.1411,6.1475,6.1528,6.1578,6.1622,6.1663,6.1642,6.1698,6.1779,6.1824,6.1914,6.1989,6.2052,6.207,6.2026,6.2023,6.2049,6.2056,6.2055,6.2053,6.1715,6.2015,6.2012,6.2011,6.2009,6.2008,6.1551,6.1622,6.1656,6.173,6.176,6.1802,6.1868,6.1875,6.1942,6.2012,6.1994,6.2085,6.212,6.22,6.2226,6.2296,6.2253,6.2292,6.2301,6.231,6.232,6.2047,6.2308,6.2307,6.2306,6.2306,6.2305,0,6.1815,6.1834,6.1902,6.1964,6.2022,6.1976,6.2022,6.2073,6.2153,6.219,6.2249,6.234,6.2412,6.2424,6.2491,6.2545,6.2526,6.2563,6.2557,6.2561,6.2356,6.2325,6.2577,6.2577,6.2577,6.2577,6.2576,6.2576,6.1959,6.2076,6.2071,6.2201,6.2219,6.2306,6.2336,6.2374,6.2403,6.2507,6.2565,6.2573,6.2599,6.2668,6.2731,6.2733,6.2758,6.2803,6.2796,6.2603,6.2576,6.255,6.2521,6.281,6.281,6.2995,6.2997,6.2998]},{"header":{"parameterUnit":"m.s-1","parameterCategory":1,"la1":30.2991,"la2":30.254,"lo1":-89.0895,"lo2":-89.0444,"dy":0.0017,"dx":0.0017,"nx":28,"ny":28,"refTime":"2023-08-11T21:00:00:Z","depth":0,"parameterNumber":3,"parameterNumberName":"V-component_of_WINDS"},"data":[0,0,0,0,0,0,0,0,0,0,0,0,0,0,0,0,0,0,0,0,0,0,0,0,0,0,0,0,0,0,0,0,0,0,0,0,0,0,0,0,0,0,0,0,0,0,0,0,0,0,0,0,0,0,0,0,0,0,3.5434,3.5436,0,3.5582,3.5584,3.5585,3.5603,3.5602,3.56,3.5599,3.5746,3.5751,3.5756,0,0,0,0,0,0,0,0,0,0,0,0,0,3.516,3.5165,3.5434,3.5436,3.5438,3.5582,3.5584,3.5586,3.5604,3.5602,3.56,3.5598,3.5744,3.575,3.5757,0,0,0,0,0,0,0,0,0,0,0,0,0,3.5291,3.5167,3.5434,3.5464,3.5468,3.5581,3.5584,3.5586,3.5604,3.5602,3.56,3.5598,3.5742,3.575,3.5757,3.5849,0,0,3.5781,3.5785,0,0,0,0,0,0,0,0,3.5283,3.5301,3.5458,3.5462,3.5467,3.5572,3.5541,3.5674,3.5604,3.5552,3.5599,3.5596,3.5689,3.5701,3.5734,3.5856,3.5862,3.5782,3.5787,3.579,3.5792,0,0,0,0,0,0,0,3.5274,3.5294,3.5492,3.546,3.5466,3.5468,3.5484,3.5566,3.5631,3.5557,3.5558,3.5576,3.5691,3.5726,3.5737,3.5865,3.5782,3.5789,3.5794,3.5797,3.6067,3.6069,0,0,0,0,0,0,3.526,3.5287,3.5488,3.5497,3.5368,3.5475,3.5493,3.554,3.563,3.5642,3.5577,3.5576,3.5714,3.5728,3.5743,3.5855,3.579,3.5798,3.5802,3.6064,3.6067,3.607,0,0,0,0,0,0,3.5254,3.5278,3.5482,3.5392,3.5419,3.5482,3.5535,3.5545,3.5579,3.5646,3.5657,3.5602,3.5713,3.5732,3.5822,3.586,3.5801,3.5808,3.6061,3.6065,3.6068,3.608,0,0,0,0,0,0,3.5246,3.5276,3.5313,3.5393,3.5423,3.5561,3.5538,3.5549,3.5593,3.5593,3.5671,3.5682,3.5712,3.581,3.583,3.587,3.5814,3.6058,3.6063,3.6067,3.6076,3.6083,3.6089,0,0,0,0,0,3.5237,3.531,3.5315,3.5339,3.5471,3.5563,3.558,3.5615,3.5597,3.5633,3.5675,3.568,3.5853,3.582,3.5842,3.5884,3.6056,3.6062,3.6067,3.6073,3.6082,3.6089,0,0,0,0,0,0,3.5231,3.5321,3.5328,3.5429,3.5489,3.5566,3.5614,3.5623,3.5688,3.5684,3.5723,3.574,3.5829,3.5866,3.5827,3.5976,3.5952,3.5962,3.5949,3.5958,3.5965,3.5953,3.5821,0,0,0,0,0,3.5242,3.5311,3.5385,3.5467,3.5497,3.555,3.5591,3.5613,3.5675,3.57,3.5749,3.5808,3.5875,3.5919,3.5985,3.6082,3.6098,3.6121,3.6128,3.6133,3.6141,3.6193,3.6204,3.6088,3.6088,3.6088,0,0,3.5265,3.5322,3.5363,3.5468,3.5516,3.5585,3.5571,3.5645,3.5695,3.5711,3.58,3.5837,3.5905,3.5999,3.6043,3.6032,3.6177,3.614,3.6144,3.6149,3.62,3.621,3.622,3.6092,3.6091,3.609,0,0,3.5341,3.5393,3.5466,3.5515,3.5589,3.5623,3.5641,3.5717,3.5743,3.5833,3.5846,3.5905,3.6021,3.6068,3.6107,3.6199,3.6205,3.6219,3.6253,3.6303,3.6312,3.6321,3.6352,3.6363,3.6227,3.6227,3.6227,0,3.536,3.5466,3.5502,3.5575,3.562,3.5638,3.5711,3.5756,3.5847,3.5876,3.5863,3.6008,3.6055,3.6159,3.6181,3.6213,3.6232,3.6211,3.6308,3.6317,3.6325,3.6355,3.6367,3.6228,3.6228,3.6228,3.6228,0,3.5484,3.5556,3.5606,3.5695,3.5745,3.5817,3.5863,3.5909,3.5925,3.596,3.605,3.6107,3.6184,3.621,3.6227,3.6316,3.6307,3.6301,3.6277,3.6337,3.6366,3.6378,3.623,3.623,3.6229,3.6229,0,0,3.5562,3.5669,3.5686,3.5726,3.5808,3.5864,3.5936,3.6012,3.605,3.6111,3.6171,3.6268,3.6262,3.6306,3.6328,3.6372,3.6439,3.6361,3.6363,3.6372,3.6538,3.6542,3.6555,3.6443,3.6445,3.6447,3.6532,0,3.5646,3.5778,3.5812,3.5922,3.5989,3.6006,3.6068,3.6124,3.6158,3.6217,3.6254,3.6322,3.631,3.6337,3.6381,3.6421,3.6473,3.6416,3.6497,3.65,3.6479,3.657,3.6574,3.6652,3.6544,3.6546,3.6547,0,3.5763,3.5828,3.5946,3.6017,3.6046,3.6102,3.6173,3.6231,3.6293,3.6315,3.6363,3.6381,3.6454,3.6426,3.6526,3.6487,3.6522,3.6546,3.655,3.6558,3.6526,3.6579,3.6677,3.6688,3.6565,3.6564,3.6563,0,3.5806,3.5923,3.6008,3.6041,3.6127,3.6166,3.6203,3.6264,3.6306,3.6368,3.6396,3.6465,3.6502,3.6554,3.6588,3.6565,3.6684,3.666,3.6702,3.6702,3.6727,3.6724,3.683,3.6751,3.675,3.675,3.675,0,3.5897,3.5968,3.6028,3.608,3.6159,3.6196,3.6273,3.631,3.6363,3.6421,3.644,3.6493,3.6536,3.6594,3.6621,3.6699,3.6716,3.6733,3.6739,3.6731,3.6729,3.6754,3.6749,3.6753,3.6753,3.6752,3.6751,0,3.5959,3.6002,3.6096,3.6169,3.6189,3.6244,3.6306,3.6356,3.639,3.6463,3.6482,3.6535,3.6605,3.6644,3.6731,3.6749,3.6835,3.6839,3.6815,3.6817,3.6856,3.6852,3.6981,3.7,3.6909,3.691,3.691,0,3.6013,3.6068,3.6148,3.6189,3.6227,3.6292,3.6336,3.6374,3.6419,3.6493,3.6533,3.6604,3.6663,3.6773,3.6818,3.6884,3.6889,3.693,3.6899,3.6888,3.6888,3.6884,3.6888,3.6935,3.6936,3.6936,3.6937,0,3.6105,3.6123,3.6187,3.6258,3.631,3.6367,3.6424,3.6455,3.6502,3.6551,3.6623,3.6669,3.6758,3.6827,3.6897,3.6933,3.6942,3.6946,3.6959,3.6951,3.6934,3.6942,3.6828,3.6943,3.6943,3.6942,3.6942,3.6941,3.6164,3.6213,3.6276,3.6346,3.6392,3.6444,3.6494,3.6535,3.6596,3.6673,3.6691,3.6766,3.6824,3.6919,3.6957,3.7014,3.7007,3.7026,3.7031,3.7035,3.7035,3.6926,3.7027,3.7027,3.7027,3.7027,3.7027,0,3.6255,3.6296,3.636,3.6439,3.6493,3.6499,3.6561,3.6605,3.6672,3.6726,3.6784,3.6865,3.6932,3.6982,3.705,3.7086,3.7092,3.7103,3.71,3.7107,3.7039,3.702,3.7097,3.7097,3.7097,3.7097,3.7097,3.7097,3.6309,3.6391,3.6417,3.6521,3.6562,3.6637,3.6672,3.6719,3.6763,3.6853,3.6909,3.6942,3.6994,3.7066,3.7126,3.7139,3.7162,3.7172,3.7185,3.712,3.7113,3.7105,3.7088,3.7177,3.7177,3.7249,3.7249,3.725]}]]